STARLINK-11546, 62835

Orbit data source: Space-Track

STARLINK-11546, 62835 is a payload satellite owned by SpaceX/Seattle (US) in LEO that was launched on Mon, 27 Jan 2025 UTC via an FALCON 9 launch vehicle from the Air Force Eastern Test Range (AFETR). Payload-class satellites include a variety of spacecraft equipped with specific instruments for various scientific and technological missions. These include communications satellites like Starlink; space stations such as the ISS; scientific satellites like the Hubble; Earth observation satellites from companies like Planet Labs, Umbra, and HawkEye 360; GPS; miniature CubeSats for education and research; and military/defense satellites.

Loading next visibility...
Identifier
62835, 2025-019G
Orbit
LEO
Country
Flag of USUS
Related business
Manufacturer
SpaceX/Seattle
Mission
Operational Commercial Communications
Bus & Motor
STARLINK V2MD, Unknown motor
Mass
960 kg wet, ~910 kg dry
Launch date (UTC)
2025-01-27 (1 year ago)
Launch vehicle
FALCON 9
Launch site
Air Force Eastern Test Range (AFETR)
Object type
Payload
Rocket body
Debris
Shape & HBR
Box + 2 Pan, 18.1 m
Radar Cross Section
36.964 m², Large (>1 m²)

Expand to show TLE details & history
Last TLE update: 11 hours ago

TLE from 11 hours ago
0 STARLINK-11546
1 62835U 25019G   26174.99329976  .00140642  00000-0  10792-2 0  9993
2 62835  42.9992  25.7482 0001861 268.8674  91.1981 15.70880551 80597
Epoch: 2026-06-23T23:50Z
TLE epoch observation values (Epoch: 2026-06-23T23:50:21.099Z)
Latitude
0.00003°
Longitude
116.00342°
Altitude
356.177 km
Speed
7.697 km/s
True Right ascension
01h 42m 59s
True Declination
0° 00' 00"
Sunlit
Object was in daylight at epoch
Visualization orbit readout
Latitude
Unknown
Longitude
Unknown
Altitude
Unknown
Speed
Unknown
Apparent Right ascension
Unknown
Apparent Declination
Unknown
Sunlit
N/A
Visualization observer readout
Local Sidereal Time
21:54:09
Azimuth
Unknown
Elevation
Unknown
Doppler factor
Unknown
Orbital elements
Apogee altitude
359.615 km
Perigee altitude
357.107 km
Semi-major axis
6,736.498 km
Eccentricity
0.00019
Inclination
42.9992°
RAAN
25.7482°
Arg. of periapsis
268.8674°
True anomaly
91.21942°
Mean anomaly
91.1981°
Eccentric anomaly
91.20876°
Mean motion
3.92547 °/min
Orbital period
91.71 mins
BSTAR
0.0010792
Loading maneuver chart data...
Computing Atmospheric mass density...
Loading historical data...
Loading historical data...
Loading historical data...
Loading historical data...
Loading historical data...
Loading historical data...
Loading historical data...

Documentation

Showing up to 5 results
|